Theta_e
297 296 292 291 290 289 288 287 286 286 286 285 285 284 284 283 283 282 282 281 280 280 279 279 278 279 277 277 278 278 277 276 274 275 276 277 276 275 276 275 275 274 274
294 292 290 289 288 287 285 285 286 285 285 285 284 283 283 282 282 281 280 280 279 278 278 278 277 279 277 277 276 276 276 276 275 273 275 275 274 274 273 272 274 275 273
290 288 287 286 285 285 285 285 285 284 284 283 283 282 281 281 280 280 279 278 278 277 277 277 277 277 276 276 275 275 275 276 275 274 273 274 273 273 272 272 272 271 273
287 287 286 286 286 285 285 284 284 283 282 282 282 281 281 280 280 279 279 278 277 277 278 277 277 276 275 275 276 275 275 275 275 274 273 272 272 272 271 269 268 270 269
285 285 285 285 285 284 283 282 282 281 281 281 280 279 279 279 279 279 279 278 277 277 277 277 277 277 278 278 276 275 275 274 274 272 271 270 270 269 268 268 267 267 267
285 284 284 284 283 282 281 280 280 280 280 279 279 278 279 280 283 281 279 277 277 277 276 276 277 278 277 278 278 279 278 275 273 272 270 269 269 269 269 268 267 264 261
285 284 283 282 280 280 281 280 280 279 280 279 279 279 279 280 283 282 281 278 277 277 276 276 276 277 276 276 277 278 277 277 276 273 270 269 269 270 270 268 266 265 263
282 281 281 280 280 280 280 279 279 279 279 279 279 280 280 281 283 282 281 278 277 277 276 276 276 275 275 277 276 274 274 273 273 273 272 272 272 271 270 268 266 262 261
281 280 280 280 279 279 278 278 278 278 277 277 278 277 278 279 281 281 279 278 277 276 277 276 276 275 277 278 274 272 271 271 274 275 274 274 273 272 271 266 256 253 257
279 279 279 279 279 278 277 277 277 277 277 277 277 277 277 277 281 280 278 278 275 276 276 276 278 277 278 278 275 271 268 269 270 267 265 266 267 266 269 265 262 251 253
279 279 278 278 278 278 277 277 277 276 276 276 275 275 275 276 277 280 279 277 276 275 275 275 275 277 277 277 277 270 270 271 265 263 262 262 263 263 263 264 263 261 256
278 277 277 277 278 277 276 276 276 276 275 274 273 273 274 275 277 279 280 279 278 275 274 273 273 276 276 276 273 274 274 266 260 259 259 259 259 260 261 261 261 261 261
277 276 276 277 277 277 276 276 275 275 274 273 272 271 272 273 274 278 278 278 277 273 274 274 274 274 274 270 271 272 266 260 258 253 257 258 259 260 260 259 258 259 259
277 276 276 276 276 276 276 276 274 272 272 272 272 271 270 271 271 272 272 270 273 271 270 267 270 270 270 269 264 265 263 259 259 258 257 258 258 255 257 258 257 258 257
276 276 275 274 274 273 273 273 274 273 273 270 267 269 266 265 272 276 272 270 266 270 260 258 258 259 260 260 259 257 257 257 257 257 256 256 256 256 255 257 256 256 254
275 274 274 272 272 273 273 275 280 279 279 278 276 273 270 275 276 275 275 275 274 273 256 253 255 257 258 258 257 257 257 254 255 255 252 253 254 254 254 255 255 253 253
275 272 271 271 271 270 271 272 272 276 278 277 277 276 275 274 274 273 273 272 271 265 251 251 252 255 256 256 256 256 256 257 251 251 253 254 253 254 253 252 253 253 252
272 270 270 269 269 268 268 267 269 267 262 262 271 271 273 272 272 272 271 264 253 254 249 249 251 253 254 255 256 255 256 255 253 253 253 253 252 250 250 251 251 251 251
269 267 267 266 266 267 267 266 264 262 259 257 256 263 262 270 270 269 268 252 250 249 249 251 252 253 254 254 254 254 253 254 254 253 253 252 252 245 249 250 251 251 251
265 266 266 266 266 265 265 264 261 259 255 254 253 255 253 254 252 250 249 248 247 251 253 253 255 253 253 253 253 253 253 253 253 251 252 251 251 250 250 251 251 250 250
266 264 264 263 263 262 261 260 258 255 253 252 253 254 266 252 250 248 249 251 251 252 254 253 254 253 253 253 252 252 252 252 253 252 252 252 252 250 251 250 250 251 250
266 264 263 263 261 260 257 257 254 252 251 251 252 252 267 251 249 251 252 252 253 252 254 253 253 254 255 254 254 253 252 252 253 252 252 252 251 251 251 250 250 250 250
264 263 262 259 259 257 254 251 251 250 250 249 249 250 249 249 249 251 252 254 254 254 254 250 251 253 254 253 252 253 252 253 253 253 252 251 251 251 250 249 249 249 249
261 261 261 258 256 252 252 250 249 250 249 249 248 248 248 249 251 252 254 254 254 254 254 253 252 252 254 254 254 254 253 253 253 253 251 251 251 251 250 249 249 249 250
260 259 259 257 255 253 250 249 249 248 248 248 248 247 247 250 252 253 254 254 254 254 254 254 254 254 252 252 252 253 254 255 253 254 253 252 252 251 250 250 250 251 250
258 258 256 254 251 248 249 250 250 249 249 249 248 247 250 252 253 254 254 254 254 255 255 256 255 253 252 253 253 255 255 258 258 258 257 255 253 252 251 251 251 251 251
Wind_Speed
15 16 18 17 17 18 16 15 16 15 15 12 12 12 11 9 7 7 8 7 9 8 6 6 6 5 4 4 3 3 2 1 2 2 1 3 3 4 5 4 4 4 5
16 18 17 21 18 18 16 16 12 14 12 13 12 11 9 7 6 8 8 7 8 8 6 6 5 5 5 4 3 4 3 2 1 4 2 2 3 4 4 4 7 7 8
18 19 18 19 20 20 18 15 14 14 13 12 11 10 8 9 9 8 8 7 7 7 6 6 4 5 4 3 4 4 3 3 2 2 3 2 1 3 3 4 8 7 8
16 16 21 18 19 17 17 15 14 13 12 10 9 9 9 9 8 8 8 8 7 6 5 4 4 4 4 4 3 2 2 2 2 2 3 2 3 2 3 7 8 7 8
18 17 17 17 19 19 16 14 13 12 10 11 11 10 9 8 6 7 7 7 6 5 4 4 4 4 5 3 2 2 3 2 2 3 4 4 5 6 7 6 8 8 8
19 22 17 15 19 17 15 12 12 13 11 11 10 9 8 6 14 13 8 5 5 5 4 4 3 4 2 4 7 9 4 2 4 4 3 6 6 7 6 7 7 7 6
19 19 17 15 17 17 13 12 13 13 11 11 10 9 9 8 14 12 10 5 5 4 4 3 2 2 2 2 6 8 6 7 8 7 6 5 7 8 7 8 6 7 7
18 16 16 15 15 14 13 12 12 10 11 9 8 8 8 7 11 11 10 5 5 4 4 3 3 2 4 4 5 5 4 4 6 6 5 6 7 9 8 7 6 4 5
15 14 14 12 15 14 13 11 10 10 9 8 8 8 7 6 10 9 6 4 4 4 2 1 1 2 7 7 3 3 5 6 8 11 13 17 17 17 14 4 4 4 8
14 12 11 12 13 14 13 11 8 9 10 8 8 7 7 6 10 9 6 3 4 3 3 3 6 5 8 11 6 3 4 7 3 4 5 8 10 9 14 5 3 2 3
12 12 12 11 12 12 12 8 9 9 9 8 9 7 8 5 6 10 10 5 3 2 3 4 4 8 10 13 12 2 6 6 7 5 5 5 6 6 4 4 5 5 5
11 13 12 10 9 9 11 8 8 9 9 8 8 6 4 4 7 9 10 9 7 3 4 3 3 11 12 14 10 16 15 8 3 4 5 6 5 6 5 5 8 8 8
13 12 11 11 10 8 8 8 7 6 6 6 6 6 3 2 4 12 12 10 13 7 5 7 11 12 14 9 12 16 6 3 4 3 5 6 5 6 8 8 6 9 10
13 12 9 10 9 7 6 5 5 4 5 6 6 5 3 2 3 3 4 4 8 5 5 3 7 10 11 10 4 6 3 2 3 5 5 6 5 4 8 7 8 8 8
11 9 9 7 8 8 7 5 5 4 5 5 3 4 4 3 2 6 3 1 2 2 3 4 3 3 4 4 4 4 3 3 4 5 6 7 7 7 7 7 7 8 8
9 7 6 6 6 7 8 8 17 15 16 15 13 7 2 7 7 6 7 9 10 10 5 3 3 2 4 5 6 7 6 5 4 5 4 5 7 7 8 7 7 7 9
9 7 6 7 6 6 6 8 9 9 14 13 12 11 9 6 7 7 7 10 10 8 3 2 3 3 5 6 6 6 8 7 2 4 6 7 7 7 7 8 8 8 9
6 6 5 5 5 4 5 4 6 6 3 2 7 7 6 5 5 5 8 7 5 5 1 2 4 5 6 7 7 7 7 7 5 6 7 7 7 6 7 9 9 9 9
5 4 4 4 3 5 4 4 4 4 3 2 2 3 6 5 5 7 6 3 2 3 3 4 4 6 7 7 7 7 7 8 8 7 8 8 7 4 9 9 9 11 12
5 6 5 5 4 5 5 5 4 4 3 3 1 2 3 4 3 3 2 1 2 4 5 5 7 6 7 8 7 7 7 8 8 7 8 6 7 7 9 10 9 9 9
4 4 6 4 4 4 4 5 4 4 3 2 2 3 3 3 3 3 3 4 4 5 6 6 7 7 7 7 7 7 8 9 8 8 8 8 8 8 8 8 9 9 10
5 5 5 6 4 4 4 4 4 4 3 2 2 3 5 1 2 4 4 5 6 6 6 6 7 8 8 8 8 8 9 10 9 8 8 8 8 8 8 9 9 9 9
5 6 6 5 5 5 3 3 4 3 3 2 3 3 3 3 3 5 6 6 6 7 6 5 6 8 7 6 6 7 9 10 10 8 9 9 9 9 8 8 10 10 10
5 5 6 5 5 3 3 3 3 3 2 2 3 4 4 3 5 7 7 7 6 7 7 6 6 9 10 9 8 8 8 10 9 9 9 9 10 10 9 9 10 12 11
5 5 5 6 5 4 3 3 2 2 2 3 4 3 3 4 6 7 7 6 6 7 9 8 7 10 11 12 13 16 16 19 14 13 10 12 13 14 11 10 12 11 13
5 4 4 4 4 3 3 4 3 2 3 4 4 3 4 6 7 8 7 7 7 8 10 9 10 12 13 12 15 17 18 18 16 18 12 10 11 10 9 12 15 11 13
Wind_Direction
128 128 124 122 124 120 118 121 120 119 121 109 104 109 108 115 121 111 100 107 104 102 89 90 85 84 74 65 73 74 75 96 207 294 311 300 11 20 5 358 8 4 358
126 122 121 116 116 114 113 113 109 113 101 103 107 111 117 119 117 109 118 111 110 109 98 86 76 89 82 69 61 50 39 13 2 296 266 309 34 359 352 18 355 348 339
118 119 115 114 115 115 107 106 111 107 102 109 114 114 118 116 113 110 107 105 99 91 88 86 86 90 79 61 57 36 35 3 329 293 295 26 307 336 358 352 338 330 322
106 110 115 117 114 107 114 108 107 107 111 106 103 106 108 107 105 100 106 100 91 88 96 103 96 85 84 63 53 18 354 305 291 324 346 336 330 356 349 335 327 319 316
100 103 97 102 105 100 103 105 109 112 112 108 108 103 100 97 101 108 104 105 109 110 109 107 96 104 98 28 34 289 290 333 13 357 340 330 324 342 338 331 314 318 313
105 98 94 103 100 103 103 115 116 104 103 108 103 98 98 104 110 111 104 106 105 108 102 86 112 105 45 23 360 358 38 38 6 339 333 326 332 328 319 309 311 323 323
101 100 103 102 100 102 113 115 106 106 105 99 101 107 100 99 108 109 110 98 92 91 83 76 88 77 60 349 339 347 34 2 359 357 335 331 306 302 299 311 314 306 295
90 94 97 104 109 108 107 102 101 103 103 107 108 105 105 112 112 100 89 89 88 90 95 92 92 53 347 24 48 39 41 5 352 329 328 311 302 317 316 322 338 305 300
92 95 104 117 110 110 106 105 108 106 106 107 105 97 92 85 92 84 76 81 93 84 89 113 126 65 11 53 63 3 355 330 321 322 328 325 323 325 318 343 338 6 310
100 111 115 111 108 108 112 116 108 106 101 99 97 94 87 76 85 81 75 67 69 49 20 41 16 31 2 349 2 37 330 310 346 347 329 330 324 312 324 337 328 240 269
112 106 100 98 103 107 101 105 105 104 102 101 95 79 76 64 73 73 69 65 69 51 39 43 29 11 346 337 345 356 289 11 354 354 329 315 318 310 305 295 289 281 267
100 88 87 91 94 96 103 102 102 109 109 101 97 83 70 62 82 74 65 54 38 51 56 43 356 339 341 339 345 321 337 17 350 335 327 318 308 301 288 276 277 271 264
92 90 94 93 90 92 112 102 98 103 115 114 105 103 104 67 47 56 41 39 55 51 31 3 354 346 341 350 335 327 20 356 333 334 299 292 289 290 292 287 270 263 259
101 99 92 94 93 85 80 80 108 100 99 104 117 120 107 73 49 48 67 54 43 44 30 1 350 351 349 342 344 345 336 313 291 282 286 288 291 297 295 294 292 295 288
100 103 99 89 87 88 80 85 84 79 116 116 115 121 114 76 31 84 91 135 191 9 59 32 9 358 346 335 324 311 298 293 291 284 294 296 296 295 289 295 289 293 284
105 103 106 107 97 100 105 97 87 96 102 103 108 105 44 82 63 56 22 11 7 11 46 26 329 314 306 306 301 298 296 282 279 286 280 282 289 290 292 294 287 280 287
108 116 110 104 114 124 122 117 117 98 94 90 87 84 85 75 60 41 20 23 21 46 68 312 287 287 282 287 283 278 287 288 267 270 278 282 282 283 293 290 289 286 285
104 100 115 117 119 119 129 121 116 131 117 23 74 76 66 57 47 29 26 35 9 7 95 244 271 275 280 277 280 281 286 288 270 268 273 275 277 270 282 280 281 281 284
105 99 109 106 112 126 118 103 101 109 123 135 0 33 2 29 38 25 32 117 222 292 283 281 252 264 270 269 273 274 272 277 275 273 270 273 274 236 270 271 273 274 282
86 116 104 122 129 111 99 108 112 120 121 123 138 233 302 36 15 312 309 272 260 263 266 264 274 265 267 272 275 273 278 278 273 262 266 260 264 255 264 273 277 281 278
119 119 114 93 101 113 125 133 128 122 135 162 218 257 216 147 240 254 283 269 255 262 268 263 276 270 272 273 267 274 274 276 276 273 272 270 267 268 272 267 275 274 280
136 134 133 128 119 109 108 116 129 130 144 161 264 285 325 70 287 275 271 267 264 252 258 258 269 270 271 273 278 278 280 280 283 279 274 274 276 275 275 273 276 276 281
130 125 108 97 102 104 101 106 116 142 166 218 247 279 308 290 279 270 268 274 277 277 273 244 257 272 267 258 255 258 272 276 278 280 278 278 280 277 276 270 276 279 279
99 108 122 118 117 119 129 152 170 151 164 243 267 269 268 270 275 277 278 277 274 277 274 264 257 262 277 277 273 263 253 263 269 269 259 267 272 276 271 269 269 271 275
111 125 135 141 141 159 159 167 154 176 222 242 265 260 271 276 278 274 271 270 275 280 280 273 266 269 268 268 268 272 274 277 272 267 263 259 257 260 261 266 269 272 272
121 128 135 137 144 158 169 181 186 189 237 250 252 263 275 286 282 281 285 284 282 285 285 285 279 271 273 276 275 277 278 280 275 264 251 241 243 249 248 255 263 262 268